Terug naar catalogus

TRANSIT 18 DEB

ActiefPO
NORAD 35416·DEBRIS·🇺🇸 United States

Gelanceerd Mar 2, 1968 vanaf Vandenberg Space Force Base

Loading…

Volgende Passages (komende 24 uur)

TLE

VersSource: Space-Track

Epoch: Sep 14, 2026, 13:15 UTC

1 35416U 68012F   26257.55219773  .00000583  00000-0  77018-3 0  9999
2 35416  90.0186 273.5980 0063468 347.7661 180.2026 13.59153867866670

Volg TRANSIT 18 DEB in realtime met AllMySat

Download on the App Store